AirNav   Pilot Hours Calculator
 
 1083 users online  

67AK South Hollywood Airport
Wasilla, Alaska, USA

GOING TO WASILLA?


FAA INFORMATION EFFECTIVE 25 MARCH 2021

Location

FAA Identifier: 67AK
Lat/Long: 61-32-04.7000N 149-40-12.3600W
61-32.078333N 149-40.206000W
61.5346389,-149.6701000
(estimated)
Elevation: 375 ft. / 114 m (estimated)
From city: 5 miles W of WASILLA, AK
Time zone: UTC -8 (UTC -9 during Standard Time)
Zip code: 99652

Airport Operations

Airport use: Private use. Permission required prior to landing
Activation date: 05/2004
Control tower: no
ARTCC: ANCHORAGE CENTER
FSS: KENAI FLIGHT SERVICE STATION [907-283-7211]
Attendance: UNATNDD
Segmented circle: no

Airport Communications

CTAF: 122.8
WX AWOS-3P at IYS (4 nm NE): 135.25 (907-373-3801)
WX AWOS-3P at BCV (8 nm SE): 135.55 (907-688-0826)
WX ASOS at FRN (16 nm S): 134.25
WX ASOS at PAQ (17 nm E): 134.75 (907-746-6675)
WX ASOS at MRI (20 nm S): 124.25 (907-271-5277)

Nearby radio navigation aids

VOR radial/distance  VOR name  Freq  Var
BGQr085/8.7BIG LAKE VORTAC112.5019E
TEDr003/23.5ANCHORAGE VOR/DME113.1518E

Airport Services

Runway Information

Runway E/W

Dimensions: 2640 x 240 ft. / 805 x 73 m
Surface: gravel
RUNWAY E  RUNWAY W
Traffic pattern: leftleft
Obstructions: 40 ft. trees40 ft. trees

Airport Ownership and Management from official FAA records

Ownership: Privately-owned
Owner: CROSS CREEK, INC
BOX 870948
WASILLA, AK 99687
Phone 907-376-2697
Manager: RODNEY WILLIS
4247 S EIDER CIR.
WASILLA, AK 99654
Phone (907) 357-5847

Airport Operational Statistics

Aircraft based on the field: 7
Single engine airplanes: 6
Helicopters: 1
    

Instrument Procedures

There are no published instrument procedures at 67AK.

Some nearby airports with instrument procedures:

PAGQ - Big Lake Airport (4 nm W)
PAWS - Wasilla Airport (4 nm NE)
PAFR - Bryant Army Airfield Heliport (16 nm S)
PAAQ - Warren "Bud" Woods Palmer Municipal Airport (17 nm E)
PAUO - Willow Airport (17 nm NW)
PAED - Elmendorf Air Force Base (17 nm S)
PAMR - Merrill Field Airport (20 nm S)
 
Loc | Ops | Rwys | IFR | FBO | Links
Com | Nav | Svcs | Stats | Notes

Crowley
 
Area around 67AK (South Hollywood Airport)
 
Road maps at: MapQuest Bing Google
 
Aerial photo
WARNING: Photo may not be current or correct
Aerial photo of 67AK (South Hollywood Airport)
Do you have a better or more recent aerial photo of South Hollywood Airport that you would like to share? If so, please send us your photo.

 
Sectional chart

 
Airport distance calculator
Flying to South Hollywood Airport? Find the distance to fly.

From to 67AK

Sunrise and sunset
Times for 10-Apr-2021
 Local
(UTC-8)
 Zulu
(UTC)
Morning civil twilight06:0514:05
Sunrise06:5314:53
Sunset21:0705:07
Evening civil twilight21:5505:55

Current date and time
Zulu (UTC)  10-Apr-2021 21:06:28
Local (UTC-8)  10-Apr-2021 13:06:28
 
METAR
PABV 
8nm SE 
102056Z AUTO 00000KT 10SM CLR M11/M19 A3026 RMK AO2 SLP254 T11061189 57004 FZRANO
PAFR 
16nm S 
101958Z AUTO 00000KT 7SM BKN080 BKN110 M12/M23 A3019 RMK AO2 SLP240 T11251229 PNO FZRANO $
PAAQ 
17nm E 
102053Z 17006KT 10SM SCT200 M10/M23 A3022 RMK AO2 SLP240 T11001233 56005
PAED 
17nm S 
101956Z 03004KT 10SM FEW090 SCT180 M12/M23 A3023 RMK AO2A SLP237 T11161228 $
PAMR 
20nm S 
102053Z 33005KT 10SM CLR M10/M23 A3024 RMK AO2 SLP242 T11001228 58005
TAF
PAAQ 
17nm E 
101729Z 1018/1118 01005KT P6SM OVC200 FM102200 VRB05KT P6SM BKN050
PAED 
17nm S 
101800Z 1018/1200 35006KT 9999 SCT080 OVC120 QNH3020INS BCEMG 1023/1024 35006KT 9999 VCSH FEW030 BKN050 OVC080 620505 QNH3013INS BECMG 1115/1116 35009KT 9999 VCSH FEW025 BKN050 OVC080 620505 520059 QNH3006INS BECMG 1120/1121 34012G18KT 9999 VCSH BKN050 OVC080 610505 560059 QNH2983INS TXM03/1019Z TNM14/1018Z
NOTAMs
Click for the latest NOTAMs
NOTAMs are issued by the DoD/FAA and will open in a separate window not controlled by AirNav.

 

 
 

Would you like to see your business listed on this page?

 If your business provides an interesting product or service to pilots, flight crews, aircraft, or users of the South Hollywood Airport, you should consider listing it here.  To start the listing process, click on the button below
 
Add a business
 

Other Pages about South Hollywood Airport

Update a link
 
Copyright © AirNav, LLC. All rights reserved. Privacy Policy  Contact